Location: Kitchener
(43.4500°N, 80.5000°W)
Time: 12:28:57
(UTC-04:00)

ATLAS 5 CENTAUR R/B - Visible Passes

Search period start: 23 October 2014 00:00
Search period end: 02 November 2014 00:00
Orbit: 714 x 949 km, 63.4° (Epoch: 19 October)

Date Brightness Start Highest point End Pass type
(mag) Time Alt. Az. Time Alt. Az. Time Alt. Az.
23 Oct 2.5 20:02:58 10° NW 20:08:57 74° WSW 20:15:05 10° SSE visible
23 Oct 5.0 21:50:22 10° W 21:52:50 13° WSW 21:55:20 10° SW visible
24 Oct 2.5 19:44:22 10° NW 19:50:22 77° WSW 19:56:35 10° SSE visible
24 Oct 5.0 21:31:30 10° W 21:34:18 14° WSW 21:37:08 10° SW visible
25 Oct 2.5 19:25:47 10° NW 19:31:47 81° SW 19:38:01 10° SSE visible
25 Oct 5.0 21:12:40 10° WNW 21:15:45 14° WSW 21:18:53 10° SW visible
26 Oct 2.5 19:07:11 10° NW 19:13:11 85° SW 19:19:26 10° SSE visible
26 Oct 5.1 20:53:52 10° WNW 20:57:13 15° WSW 21:00:36 10° SW visible
27 Oct 2.5 18:48:35 10° NW 18:54:36 88° SW 19:00:51 10° SSE visible
27 Oct 5.1 20:35:05 10° WNW 20:38:40 16° WSW 20:42:18 10° SW visible
28 Oct 5.1 20:16:19 10° WNW 20:20:06 17° WSW 20:23:57 10° SSW visible
29 Oct 5.1 19:57:35 10° WNW 20:01:33 18° WSW 20:05:36 10° SSW visible
30 Oct 5.2 19:38:51 10° WNW 19:43:00 19° WSW 19:47:13 10° SSW visible
31 Oct 5.2 19:20:08 10° WNW 19:24:26 20° WSW 19:28:50 10° SSW visible
01 Nov 5.2 19:01:25 10° WNW 19:05:52 22° WSW 19:10:25 10° SSW visible
